Location: Devargunta
(16.7631°N, 80.9077°E)
Time: 19:00:28
(UTC+00:00)

SAR-Lupe-4 - Pass Details

Date: 19 January 2021
Orbit: 480 x 484 km, 98.2° (Epoch: 27 February)

Event Time Altitude Azimuth Distance (km) Brightness Sun altitude
Rises 12:42:28 0° 16° (NNE) 2,534 6.9 -4.7°
Reaches altitude 10° 12:44:33 10° 19° (NNE) 1,653 5.9 -5.1°
Maximum altitude 12:48:04 65° 101° (E) 530 3.5 -5.9°
Drops below altitude 10° 12:51:34 10° 184° (S) 1,648 6.6 -6.7°
Sets 12:53:38 0° 187° (S) 2,525 7.6 -7.2°
